IGO41HP VOBL-VOMM

Flight info

Callsign IGO41HP
Flight time 0h 31m
Altitude 15000
Route BIA W116 MMV
Aircraft A21N/M-SDE2E3FGHIRWXY/LB1

Departure

Time 2026-05-09 10:15
Airport Kempegowda International Airport Bengaluru (VOBL)

Arrival

Time 2026-05-09 10:47
Airport Chennai International Airport (VOMM)
Time Latitude Longitude Altitude Speed Heading
2026-05-09 10:02 13.20165 77.71064 2967 ft 0 kts 179°
2026-05-09 10:06 13.20166 77.71064 2967 ft 0 kts 179°
2026-05-09 10:06 13.20171 77.71064 2966 ft 1 kts 201°
2026-05-09 10:07 13.20185 77.71069 2966 ft 2 kts 177°
2026-05-09 10:07 13.20200 77.71067 2965 ft 2 kts 179°
2026-05-09 10:07 13.20215 77.71068 2965 ft 2 kts 180°
2026-05-09 10:07 13.20230 77.71067 2964 ft 2 kts 199°
2026-05-09 10:08 13.20242 77.71077 2964 ft 2 kts 241°
2026-05-09 10:08 13.20246 77.71087 2963 ft 0 kts 268°
2026-05-09 10:08 13.20245 77.71094 2963 ft 0 kts 271°
2026-05-09 10:08 13.20245 77.71095 2963 ft 0 kts 271°
2026-05-09 10:10 13.20245 77.71087 2963 ft 3 kts 267°
2026-05-09 10:10 13.20241 77.71046 2964 ft 7 kts 265°
2026-05-09 10:10 13.20240 77.70986 2966 ft 9 kts 269°
2026-05-09 10:10 13.20240 77.70911 2968 ft 11 kts 270°
2026-05-09 10:11 13.20240 77.70818 2970 ft 13 kts 270°
2026-05-09 10:11 13.20241 77.70716 2973 ft 15 kts 270°
2026-05-09 10:11 13.20241 77.70599 2975 ft 17 kts 270°
2026-05-09 10:11 13.20243 77.70465 2976 ft 16 kts 271°
2026-05-09 10:12 13.20310 77.70393 2979 ft 16 kts
2026-05-09 10:12 13.20430 77.70390 2981 ft 17 kts
2026-05-09 10:12 13.20526 77.70336 2983 ft 17 kts 278°
2026-05-09 10:12 13.20531 77.70203 2986 ft 19 kts 270°
2026-05-09 10:13 13.20533 77.70059 2987 ft 21 kts 272°
2026-05-09 10:13 13.20535 77.69895 2987 ft 23 kts 272°
2026-05-09 10:13 13.20537 77.69717 2988 ft 25 kts 272°
2026-05-09 10:13 13.20539 77.69531 2990 ft 26 kts 270°
2026-05-09 10:14 13.20539 77.69340 2994 ft 26 kts 270°
2026-05-09 10:14 13.20594 77.69209 2997 ft 20 kts 352°
2026-05-09 10:14 13.20706 77.69265 2998 ft 20 kts 76°
2026-05-09 10:14 13.20712 77.69456 2996 ft 47 kts 93°
2026-05-09 10:15 13.20704 77.70047 2989 ft 115 kts 91°
2026-05-09 10:15 13.20704 77.71085 2943 ft 174 kts 84°
2026-05-09 10:15 13.20736 77.72395 3365 ft 186 kts 89°
2026-05-09 10:15 13.20814 77.73739 3907 ft 192 kts 75°
2026-05-09 10:16 13.21448 77.74960 4515 ft 200 kts 53°
2026-05-09 10:16 13.22274 77.76075 5238 ft 191 kts 54°
2026-05-09 10:16 13.23068 77.77152 5724 ft 186 kts 54°
2026-05-09 10:16 13.23835 77.78272 5929 ft 199 kts 57°
2026-05-09 10:17 13.24632 77.79546 6012 ft 219 kts 58°
2026-05-09 10:17 13.25458 77.80942 5940 ft 243 kts 59°
2026-05-09 10:17 13.26326 77.82486 6344 ft 248 kts 65°
2026-05-09 10:17 13.26823 77.84135 7065 ft 242 kts 81°
2026-05-09 10:18 13.26897 77.85884 7658 ft 244 kts 88°
2026-05-09 10:18 13.26871 77.87643 8197 ft 247 kts 88°
2026-05-09 10:18 13.26839 77.89417 8742 ft 250 kts 88°
2026-05-09 10:18 13.26810 77.91203 9320 ft 252 kts 87°
2026-05-09 10:19 13.26788 77.93054 9755 ft 262 kts 88°
2026-05-09 10:19 13.26772 77.94981 10033 ft 277 kts 88°
2026-05-09 10:19 13.26753 77.97015 10443 ft 286 kts 88°
2026-05-09 10:19 13.26731 77.99078 10992 ft 290 kts 88°
2026-05-09 10:20 13.26708 78.01184 11569 ft 292 kts 88°
2026-05-09 10:20 13.26687 78.03284 12116 ft 295 kts 88°
2026-05-09 10:20 13.26665 78.05428 12662 ft 297 kts 89°
2026-05-09 10:20 13.26620 78.07567 13178 ft 301 kts 92°
2026-05-09 10:21 13.26356 78.09731 13666 ft 305 kts 99°
2026-05-09 10:21 13.25834 78.11880 13931 ft 318 kts 104°
2026-05-09 10:21 13.25177 78.14132 14151 ft 330 kts 105°
2026-05-09 10:21 13.24487 78.16441 14362 ft 342 kts 105°
2026-05-09 10:22 13.23770 78.18846 14585 ft 354 kts 105°
2026-05-09 10:22 13.23040 78.21300 14889 ft 359 kts 105°
2026-05-09 10:22 13.22308 78.23760 14947 ft 359 kts 105°
2026-05-09 10:22 13.21576 78.26231 14955 ft 359 kts 105°
2026-05-09 10:23 13.20849 78.28686 14957 ft 359 kts 105°
2026-05-09 10:23 13.20120 78.31153 14957 ft 359 kts 105°
2026-05-09 10:23 13.19391 78.33619 14954 ft 359 kts 105°
2026-05-09 10:23 13.18669 78.36060 14955 ft 359 kts 105°
2026-05-09 10:24 13.17934 78.38546 14948 ft 359 kts 105°
2026-05-09 10:24 13.17211 78.40994 14952 ft 359 kts 105°
2026-05-09 10:24 13.16479 78.43469 14954 ft 358 kts 105°
2026-05-09 10:24 13.15755 78.45914 14951 ft 358 kts 105°
2026-05-09 10:25 13.15033 78.48356 14947 ft 358 kts 105°
2026-05-09 10:25 13.14304 78.50817 14945 ft 358 kts 105°
2026-05-09 10:25 13.13577 78.53276 14940 ft 358 kts 105°
2026-05-09 10:25 13.12837 78.55769 14929 ft 358 kts 105°
2026-05-09 10:26 13.12105 78.58237 14928 ft 358 kts 105°
2026-05-09 10:26 13.11380 78.60684 14923 ft 358 kts 105°
2026-05-09 10:26 13.10638 78.63181 14917 ft 358 kts 105°
2026-05-09 10:26 13.09911 78.65632 14911 ft 358 kts 105°
2026-05-09 10:27 13.09175 78.68124 14908 ft 358 kts 105°
2026-05-09 10:27 13.08452 78.70572 14906 ft 358 kts 105°
2026-05-09 10:27 13.07722 78.73041 14905 ft 358 kts 105°
2026-05-09 10:27 13.06987 78.75510 14900 ft 358 kts 105°
2026-05-09 10:28 13.06248 78.77999 14896 ft 358 kts 106°
2026-05-09 10:28 13.05520 78.80454 14885 ft 358 kts 106°
2026-05-09 10:28 13.04795 78.82885 14886 ft 357 kts 105°
2026-05-09 10:28 13.04065 78.85337 14875 ft 357 kts 105°
2026-05-09 10:29 13.03339 78.87776 14875 ft 358 kts 105°
2026-05-09 10:29 13.02603 78.90246 14866 ft 358 kts 105°
2026-05-09 10:29 13.01884 78.92657 14847 ft 358 kts 105°
2026-05-09 10:29 13.01149 78.95119 14865 ft 358 kts 105°
2026-05-09 10:30 13.00408 78.97606 14855 ft 358 kts 105°
2026-05-09 10:30 12.99669 79.00082 14847 ft 358 kts 105°
2026-05-09 10:30 12.98941 79.02517 14846 ft 358 kts 106°
2026-05-09 10:30 12.98212 79.04956 14849 ft 358 kts 106°
2026-05-09 10:31 12.97479 79.07407 14852 ft 357 kts 105°
2026-05-09 10:31 12.96748 79.09858 14854 ft 357 kts 105°
2026-05-09 10:31 12.96030 79.12289 14853 ft 357 kts 105°
2026-05-09 10:31 12.95315 79.14726 14849 ft 357 kts 105°
2026-05-09 10:32 12.94596 79.17171 14848 ft 357 kts 105°
2026-05-09 10:32 12.93878 79.19611 14849 ft 357 kts 105°
2026-05-09 10:32 12.93158 79.22059 14846 ft 357 kts 105°
2026-05-09 10:32 12.92431 79.24519 14842 ft 357 kts 105°
2026-05-09 10:33 12.91701 79.26994 14840 ft 357 kts 105°
2026-05-09 10:33 12.90982 79.29433 14841 ft 357 kts 105°
2026-05-09 10:33 12.90260 79.31874 14807 ft 356 kts 105°
2026-05-09 10:33 12.89538 79.34299 14341 ft 358 kts 105°
2026-05-09 10:34 12.88792 79.36773 13582 ft 365 kts 105°
2026-05-09 10:34 12.87312 79.41724 12601 ft 358 kts 105°
2026-05-09 10:34 12.86591 79.44153 12241 ft 352 kts 105°
2026-05-09 10:35 12.85878 79.46555 11879 ft 345 kts 105°
2026-05-09 10:35 12.85240 79.48903 11511 ft 338 kts 97°
2026-05-09 10:35 12.85307 79.51276 11118 ft 328 kts 75°
2026-05-09 10:35 12.86061 79.53504 10728 ft 321 kts 68°
2026-05-09 10:36 12.86863 79.55608 10353 ft 315 kts 67°
2026-05-09 10:36 12.87662 79.57708 9960 ft 308 kts 67°
2026-05-09 10:36 12.88424 79.59732 9509 ft 296 kts 67°
2026-05-09 10:36 12.89157 79.61693 8996 ft 286 kts 67°
2026-05-09 10:37 12.89853 79.63560 8492 ft 277 kts 68°
2026-05-09 10:37 12.90535 79.65394 7884 ft 273 kts 68°
2026-05-09 10:37 12.91199 79.67199 7554 ft 268 kts 68°
2026-05-09 10:37 12.91849 79.68971 7235 ft 261 kts 68°
2026-05-09 10:38 12.92485 79.70701 6836 ft 256 kts 68°
2026-05-09 10:38 12.93112 79.72407 6466 ft 254 kts 68°
2026-05-09 10:38 12.93738 79.74101 6139 ft 253 kts 68°
2026-05-09 10:38 12.94363 79.75799 5884 ft 247 kts 68°
2026-05-09 10:39 12.94967 79.77434 5628 ft 242 kts 69°
2026-05-09 10:39 12.95572 79.79076 5352 ft 238 kts 69°
2026-05-09 10:39 12.96155 79.80658 5077 ft 234 kts 69°
2026-05-09 10:39 12.96725 79.82205 4775 ft 229 kts 69°
2026-05-09 10:40 12.97069 79.83788 4431 ft 224 kts 90°
2026-05-09 10:40 12.96918 79.85371 4104 ft 216 kts 97°
2026-05-09 10:40 12.96670 79.86859 3792 ft 207 kts 99°
2026-05-09 10:40 12.96411 79.88306 3587 ft 199 kts 99°
2026-05-09 10:41 12.96162 79.89680 3332 ft 189 kts 99°
2026-05-09 10:41 12.95927 79.90994 3018 ft 183 kts 99°
2026-05-09 10:41 12.95702 79.92265 2694 ft 178 kts 99°
2026-05-09 10:41 12.95481 79.93524 2390 ft 176 kts 99°
2026-05-09 10:42 12.95260 79.94769 2309 ft 175 kts 99°
2026-05-09 10:42 12.95036 79.96024 2311 ft 176 kts 99°
2026-05-09 10:42 12.94812 79.97271 2298 ft 176 kts 99°
2026-05-09 10:42 12.94585 79.98537 2294 ft 176 kts 99°
2026-05-09 10:43 12.94361 79.99792 2288 ft 176 kts 99°
2026-05-09 10:43 12.94142 80.01046 2289 ft 176 kts 99°
2026-05-09 10:43 12.93973 80.02312 2285 ft 176 kts 91°
2026-05-09 10:43 12.94131 80.03554 2300 ft 176 kts 78°
2026-05-09 10:44 12.94475 80.04738 2115 ft 159 kts 72°
2026-05-09 10:44 12.94850 80.05791 1922 ft 153 kts 70°
2026-05-09 10:44 12.95222 80.06782 1706 ft 142 kts 70°
2026-05-09 10:44 12.95575 80.07719 1526 ft 140 kts 70°
2026-05-09 10:45 12.95918 80.08633 1347 ft 140 kts 70°
2026-05-09 10:46 12.97302 80.12325 654 ft 145 kts 69°
2026-05-09 10:46 12.97665 80.13291 471 ft 145 kts 69°
2026-05-09 10:46 12.98029 80.14255 289 ft 146 kts 70°
2026-05-09 10:46 12.98393 80.15235 110 ft 147 kts 68°
2026-05-09 10:47 12.98736 80.16141 44 ft 105 kts 68°
2026-05-09 10:47 12.98918 80.16629 45 ft 60 kts 68°
2026-05-09 10:47 12.99028 80.16908 45 ft 37 kts 73°
2026-05-09 10:47 12.99095 80.17104 46 ft 21 kts 71°
2026-05-09 10:48 12.99073 80.17203 47 ft 14 kts 153°
2026-05-09 10:48 12.98981 80.17236 49 ft 12 kts 182°
2026-05-09 10:48 12.98927 80.17186 50 ft 11 kts 244°
2026-05-09 10:48 12.98893 80.17104 49 ft 12 kts 249°
2026-05-09 10:49 12.98859 80.17013 48 ft 14 kts 249°
2026-05-09 10:49 12.98823 80.16917 48 ft 14 kts 249°
2026-05-09 10:49 12.98787 80.16821 48 ft 14 kts 249°
2026-05-09 10:49 12.98729 80.16740 48 ft 13 kts 191°
2026-05-09 10:50 12.98643 80.16761 50 ft 12 kts 161°
2026-05-09 10:50 12.98581 80.16734 51 ft 10 kts 243°
2026-05-09 10:50 12.98554 80.16657 50 ft 12 kts 249°
2026-05-09 10:50 12.98524 80.16576 51 ft 12 kts 249°
2026-05-09 10:51 12.98494 80.16495 51 ft 8 kts 246°
2026-05-09 10:51 12.98444 80.16483 52 ft 7 kts 166°
2026-05-09 10:51 12.98419 80.16492 52 ft 0 kts 158°